GW1410 Weather Reports


time (UTC)temp
F
wind
direction
speed
knots
gust
knots
rain 1hr
in
rain 24hr
in
rain mn
in
humidity
%
barometer
mb
20260508141503 72 157 2.6 8.7 0.00 0.00 0.00 77 1013.9
20260508140002 72 284 1.7 6.1 0.00 0.00 0.00 78 1013.7
20260508134544 72 104 2.6 6.1 0.00 0.00 0.00 77 1013.7
20260508133043 72 290 2.6 7.8 0.00 0.00 0.00 76 1013.7
20260508131524 72 5 2.6 8.7 0.00 0.00 0.00 76 1013.9
20260508130023 73 23 3.5 9.6 0.00 0.00 0.00 75 1014.0
20260508124504 74 279 2.6 5.2 0.00 0.00 0.00 74 1014.1
20260508123007 73 331 3.5 7.8 0.00 0.00 0.00 72 1014.3
20260508121547 73 313 2.6 7.0 0.00 0.00 0.00 73 1014.4
20260508120050 73 315 2.6 7.0 0.00 0.00 0.00 72 1014.5
20260508114525 74 326 3.5 8.7 0.00 0.00 0.00 71 1014.6
20260508113025 74 246 4.3 7.8 0.00 0.00 0.00 70 1014.8
20260508111513 74 63 1.7 6.1 0.00 0.00 0.00 71 1015.0
20260508110019 74 299 2.6 7.0 0.00 0.00 0.00 72 1015.0
20260508104549 73 297 4.3 8.7 0.00 0.00 0.00 71 1015.2
20260508103050 74 64 3.5 7.8 0.00 0.00 0.00 72 1015.2
20260508101528 74 349 3.5 7.8 0.00 0.00 0.00 73 1015.1
20260508100032 73 292 3.5 7.8 0.00 0.00 0.00 72 1015.2
20260508094510 73 22 3.5 7.8 0.00 0.00 0.00 73 1015.5
20260508093010 72 246 3.5 7.8 0.00 0.00 0.00 73 1015.6
20260508091607 72 311 2.6 9.6 0.00 0.00 0.00 72 1015.8
20260508090051 72 340 2.6 7.8 0.00 0.00 0.00 72 1015.8
20260508084529 72 273 2.6 7.0 0.00 0.00 0.00 73 1015.9
20260508083027 71 260 3.5 7.0 0.00 0.00 0.00 74 1016.2
20260508081508 71 306 2.6 8.7 0.00 0.00 0.00 73 1016.3
20260508080006 72 175 2.6 7.8 0.00 0.00 0.00 72 1016.3
20260508074547 72 304 1.7 7.0 0.00 0.00 0.00 70 1016.3
20260508073047 73 220 0.9 7.8 0.00 0.00 0.00 70 1016.3
20260508071526 72 348 1.7 4.3 0.00 0.00 0.00 70 1016.1
20260508070021 73 290 1.7 5.2 0.00 0.00 0.00 70 1016.1
20260508064600 73 273 1.7 4.3 0.00 0.00 0.00 69 1016.1
20260508063059 73 325 0.9 3.5 0.00 0.00 0.00 70 1016.2
20260508061535 72 267 0.0 1.7 0.00 0.00 0.00 75 1016.3
20260508060039 69 267 0.0 1.7 0.00 0.00 0.00 78 1016.6
20260508054531 67 262 0.0 1.7 0.00 0.00 0.00 81 1016.6
20260508053011 66 42 0.9 3.5 0.00 0.00 0.00 81 1016.6
20260508051507 65 301 1.7 4.3 0.00 0.00 0.00 82 1016.6
20260508050004 64 289 0.9 5.2 0.00 0.00 0.00 82 1016.4
20260508044502 63 217 0.9 5.2 0.00 0.00 0.00 83 1016.4
20260508043102 62 338 1.7 2.6 0.00 0.00 0.00 84 1016.3
20260508041559 62 338 0.9 1.7 0.00 0.00 0.00 84 1016.1
20260508040100 61 338 0.0 0.0 0.00 0.00 0.00 84 1016.0
20260508034558 61 338 0.0 0.9 0.00 0.00 0.00 85 1015.6
20260508033040 61 338 0.0 0.0 0.00 0.00 0.00 84 1015.5
20260508031537 60 338 0.0 1.7 0.00 0.00 0.00 84 1015.3
20260508030019 60 338 0.0 1.7 0.00 0.00 0.00 84 1015.3
20260508024517 60 338 0.0 0.9 0.00 0.00 0.00 84 1015.1
20260508023058 61 338 0.0 1.7 0.00 0.00 0.00 84 1015.0
20260508021557 61 338 0.0 1.7 0.00 0.00 0.00 85 1014.7
20260508020038 61 338 0.0 1.7 0.00 0.00 0.00 85 1014.5
20260508014539 61 338 0.0 1.7 0.00 0.00 0.00 85 1014.6
20260508013019 62 338 0.9 2.6 0.00 0.00 0.00 85 1014.9
20260508011517 62 338 0.0 0.0 0.00 0.00 0.00 85 1014.9
20260508004557 62 338 0.0 1.7 0.00 0.00 0.00 85 1015.3
20260508003042 62 338 0.0 0.0 0.00 0.00 0.00 85 1015.4
20260508001542 62 338 0.0 0.0 0.00 0.00 0.00 85 1015.5
20260508000040 62 338 0.0 3.5 0.00 0.00 0.00 85 1015.5
20260507234542 62 338 0.0 2.6 0.00 0.00 0.00 84 1015.6
20260507233038 62 338 0.0 1.7 0.00 0.00 0.00 84 1015.8
20260507231542 62 338 0.9 2.6 0.00 0.00 0.00 84 1015.9
20260507230040 62 338 0.0 1.7 0.00 0.00 0.00 83 1016.0
20260507224533 63 338 0.9 1.7 0.00 0.00 0.00 83 1016.0
20260507223014 63 338 0.0 2.6 0.00 0.00 0.00 83 1016.3
20260507221512 63 338 0.0 1.7 0.00 0.00 0.00 83 1016.2
20260507220054 63 338 0.9 2.6 0.00 0.00 0.00 82 1016.3
20260507214553 63 338 0.0 2.6 0.00 0.00 0.00 82 1016.2
20260507213035 63 338 0.9 1.7 0.00 0.00 0.00 82 1016.3
20260507211539 63 338 0.0 2.6 0.00 0.00 0.00 82 1016.1
20260507210014 63 332 1.7 4.3 0.00 0.00 0.00 82 1016.0
20260507204513 63 166 1.7 5.2 0.00 0.00 0.00 81 1015.7
20260507203059 63 277 1.7 5.2 0.00 0.00 0.00 81 1015.5
20260507201555 64 347 1.7 4.3 0.00 0.00 0.00 81 1015.4
20260507200038 64 134 0.9 4.3 0.00 0.00 0.00 81 1015.4
20260507194536 64 313 2.6 4.3 0.00 0.00 0.00 81 1015.6
20260507193017 64 298 1.7 4.3 0.00 0.00 0.00 80 1015.6
20260507191516 64 317 0.9 3.5 0.00 0.00 0.00 80 1015.6
20260507190059 64 282 0.9 3.5 0.00 0.00 0.00 79 1015.7
20260507184558 64 277 0.9 3.5 0.00 0.00 0.00 79 1015.8
20260507183047 64 254 0.9 3.5 0.00 0.00 0.00 79 1015.9
20260507181543 65 305 0.9 4.3 0.00 0.00 0.00 78 1015.9
20260507180027 65 277 0.9 3.5 0.00 0.00 0.00 77 1015.7
20260507174521 65 190 1.7 4.3 0.00 0.00 0.00 77 1015.6
20260507173006 65 123 1.7 5.2 0.00 0.00 0.00 76 1015.5
20260507171503 66 257 1.7 7.0 0.00 0.00 0.00 75 1015.4
20260507170045 66 317 0.9 7.0 0.00 0.00 0.00 74 1015.4
20260507164549 66 311 1.7 6.1 0.00 0.00 0.00 73 1015.3
20260507163026 66 270 1.7 5.2 0.00 0.00 0.00 73 1015.3
20260507161536 67 319 1.7 6.1 0.00 0.00 0.00 73 1015.1
20260507160018 67 268 2.6 6.1 0.00 0.00 0.00 72 1015.0
20260507154508 68 265 1.7 6.1 0.00 0.00 0.00 71 1015.0
20260507153101 68 269 1.7 6.1 0.00 0.00 0.00 70 1015.1
20260507151550 68 348 3.5 8.7 0.00 0.00 0.00 70 1015.1
20260507150034 69 288 3.5 8.7 0.00 0.00 0.00 69 1015.2
20260507144535 69 290 3.5 7.8 0.00 0.00 0.00 68 1015.0
20260507143015 70 277 3.5 7.8 0.00 0.00 0.00 67 1015.2